STARLINK-32432, 61257

Orbit data source: Space-Track

STARLINK-32432, 61257 is a payload satellite owned by SpaceX/Seattle (US) in LEO that was launched on Wed, 25 Sep 2024 UTC via an FALCON 9 launch vehicle from the Air Force Western Test Range (AFWTR). Payload-class satellites include a variety of spacecraft equipped with specific instruments for various scientific and technological missions. These include communications satellites like Starlink; space stations such as the ISS; scientific satellites like the Hubble; Earth observation satellites from companies like Planet Labs, Umbra, and HawkEye 360; GPS; miniature CubeSats for education and research; and military/defense satellites.

Loading next visibility...
Identifier
61257, 2024-175Q
Orbit
LEO
Last TLE update
15 hours ago
Origin
Manufacturer
SpaceX/Seattle
Mission
Operational Commercial Communications
Bus & Motor
STARLINK V2M, Unknown motor
Mass
730 kg wet, ~700 kg dry
Launch date (UTC)
2024-09-25 (9 months ago)
Launch vehicle
FALCON 9
Launch site
Air Force Western Test Range (AFWTR)
Object type
Payload
Rocket body
Debris
Shape & HBR
Box + 2 Pan, 29 m
Radar Cross Section
33.884 m², Large (>1 m²)

Expand to show TLE details & history

TLE from 15 hours ago
0 STARLINK-32432
1 61257U 24175Q   25181.77416711 -.00000589  00000-0 -77541-5 0  9994
2 61257  53.1603 284.2045 0001027  77.2232 282.8883 15.30199740 44083
Epoch: 2025-06-30T18:34Z
TLE epoch observation values (Epoch: 2025-06-30T18:34:48.038Z)
Latitude
-0.00005°
Longitude
86.42515°
Altitude
475.959 km
Speed
7.629 km/s
True Right ascension
18h 56m 49s
True Declination
0° 00' 00"
Sunlit
Object was in full shadow at epoch
Visualization orbit readout
Latitude
-42.29268°
Longitude
-53.83654°
Altitude
489.983 km
Speed
7.619 km/s
Apparent Right ascension
09h 28m 45s
Apparent Declination
-40° 58' 44"
Sunlit
Object is in daylight
Visualization observer readout
Local Sidereal Time
21:21:27
Azimuth
231.946° WSW
Elevation
-88.253°
Doppler factor
1
Orbital elements
Apogee altitude
476.176 km
Perigee altitude
474.768 km
Semi-major axis
6,853.609 km
Eccentricity
0.0001
Inclination
53.1603°
RAAN
284.2045°
Arg. of periapsis
77.2232°
True anomaly
Unknown
Mean anomaly
282.8883°
Eccentric anomaly
Unknown
Mean motion
3.82529 °/min
Orbital period
94.11 mins
BSTAR
-0.0000077541
Loading maneuver chart data...
Loading SW <> Apogee altitude chart data...
Loading historical data...
Loading historical data...
Loading historical data...
Loading historical data...
Loading historical data...
Loading historical data...
Loading historical data...

STARLINK-32432 Visibility forecast

Observer location: undefined°, undefined°

Span
Click to sort rows by Start time (UTC) header in descending order
Start Az.
Max El. time (UTC)
Max El. Az.
Max El.
End time (UTC)
End Az.
6 mins2025-07-01 10:28:08.022Z263.018° W2025-07-01 10:31:08.022Z323.683° NNW29.219°2025-07-01 10:34:08.022Z31.712° NE
5 mins2025-07-01 15:26:08.022Z339.307° N2025-07-01 15:28:08.022Z28.538° NE26.747°2025-07-01 15:31:08.022Z91.142° ESE
5 mins2025-07-01 17:04:08.022Z281.217° WNW2025-07-01 17:06:08.022Z226.132° WSW30.033°2025-07-01 17:09:08.022Z162.428° S
4 mins2025-07-02 08:22:08.022Z172.983° S2025-07-02 08:24:08.022Z125.461° SE23.129°2025-07-02 08:26:08.022Z83.068° E
|